Dewpoint
56 57 57 57 58 58 58 59 59 59 59 60 60 60 60 60 58 59 60 60 61 61 60 60 61 60 60 60 60 58 49 26 21 18 17 24 41 53 57 58 57 59 55 39 36 27 25 28 30 29 10 17 21 17 21 23 29 25 17 14 11 14 16 21 17 18 17 15 15 17 19 20 20 21 21 21 19 18 19 18 18 17 18 19 20 19 19 20
56 57 57 57 57 58 58 58 58 59 59 60 60 60 60 60 59 58 59 60 61 61 61 61 60 59 60 59 59 56 36 28 20 17 17 36 53 56 56 56 57 57 50 35 35 32 23 23 32 16 9 14 21 16 24 24 23 21 16 12 12 19 19 22 18 19 15 14 15 17 20 20 19 20 21 19 19 19 18 18 16 15 16 16 17 17 18 19
56 56 57 57 57 57 58 58 58 59 59 59 60 60 60 60 58 58 58 61 61 60 60 61 60 60 60 60 58 53 34 25 16 15 17 48 53 54 56 57 56 53 39 35 37 35 32 29 34 21 19 8 15 12 20 20 25 23 17 14 16 20 21 21 18 19 18 16 15 18 17 19 19 20 22 20 19 21 19 16 16 15 15 15 16 17 17 18
56 56 56 56 57 58 58 58 58 59 59 60 60 60 60 60 58 58 60 61 60 60 60 60 60 59 59 59 60 38 30 22 15 16 19 49 52 56 55 56 53 46 41 42 42 41 34 27 24 21 21 16 20 19 17 19 16 18 17 14 16 21 16 14 18 17 19 19 17 18 17 17 17 20 21 21 19 20 20 18 17 15 15 15 16 17 17 16
56 55 56 57 57 57 57 58 59 59 59 60 59 60 59 60 60 61 60 60 60 60 60 60 60 60 59 56 52 32 27 16 14 20 20 50 54 54 54 55 52 41 42 42 28 28 26 25 24 27 20 15 25 20 18 19 18 21 17 19 17 18 14 15 17 18 19 19 17 17 17 16 19 20 21 20 18 18 21 22 21 15 15 16 16 16 16 16
55 56 57 56 56 57 58 58 59 59 59 59 59 60 60 59 60 60 60 61 60 61 60 60 59 59 59 50 36 33 22 3 19 16 50 49 53 51 54 54 48 37 34 28 26 28 23 22 20 23 24 19 18 19 17 20 22 17 21 17 17 16 14 15 18 19 19 18 17 17 17 18 18 17 21 20 20 21 25 24 18 16 16 17 17 17 16 16
56 56 56 57 56 57 58 58 59 59 59 59 59 59 60 60 60 60 61 61 60 60 61 59 59 59 57 50 35 18 13 15 17 20 44 49 47 49 52 48 45 31 27 23 24 24 25 23 22 23 22 22 20 21 25 25 25 21 17 18 13 14 14 16 17 21 20 18 17 18 20 17 18 16 19 21 20 23 22 18 18 20 20 19 17 17 18 17
56 56 56 56 57 57 58 58 58 59 59 58 59 60 59 59 60 60 60 61 61 60 59 59 59 57 55 33 24 15 13 14 12 25 41 44 29 28 42 35 31 27 21 25 25 21 25 23 21 25 20 19 21 23 25 22 25 20 19 20 19 15 15 16 18 18 19 20 18 18 16 16 17 15 19 19 19 18 18 19 19 18 18 18 18 19 20 19
56 56 56 56 57 57 57 57 58 58 58 59 59 59 60 59 59 59 60 59 59 60 58 58 59 55 48 28 16 8 8 11 21 28 23 18 19 29 29 21 31 20 20 21 26 25 14 16 27 22 18 19 22 21 23 19 18 23 23 26 22 12 16 17 14 14 16 19 17 16 16 17 17 17 15 18 17 18 17 17 17 17 17 17 17 18 18 17
56 56 56 56 57 56 57 58 59 58 58 58 59 60 60 59 59 58 58 59 59 58 59 58 56 50 31 19 17 7 11 16 20 25 18 18 19 29 28 30 25 20 19 18 21 24 17 17 23 23 22 23 23 21 21 23 19 27 27 25 14 14 16 13 14 15 16 19 18 16 16 16 16 16 15 20 18 18 16 16 16 16 16 16 17 16 12 6
56 56 56 56 56 57 58 59 58 58 59 59 59 60 60 59 58 57 58 59 58 59 59 58 51 34 16 15 11 10 19 16 21 22 18 19 20 23 25 28 26 22 21 19 19 24 27 24 27 28 27 23 23 23 21 21 26 23 22 20 20 12 11 13 13 15 16 15 18 17 16 16 16 16 15 19 18 16 15 15 15 15 15 15 12 8 6 4
56 56 56 55 57 57 58 58 58 58 59 60 60 60 59 57 57 57 58 57 58 59 59 58 45 21 19 12 11 11 15 19 23 18 18 20 20 25 30 32 25 23 21 18 19 24 29 28 25 22 15 27 20 22 21 24 24 22 19 16 17 8 5 9 12 15 15 13 18 18 15 13 15 15 17 18 17 15 14 14 14 14 14 13 9 5 2 3
56 56 55 56 57 57 57 57 58 58 59 59 59 59 58 57 56 57 58 55 59 58 58 52 41 33 27 13 12 16 19 21 24 18 19 21 21 25 26 26 26 25 23 19 19 24 33 25 17 13 20 27 26 15 21 15 15 21 16 14 11 9 6 5 15 18 12 9 15 11 3 9 9 14 16 17 14 14 13 13 13 13 13 12 8 4 2 2
56 55 55 56 57 57 57 57 58 58 58 58 59 58 57 56 57 57 58 54 55 57 58 49 29 24 24 10 12 17 19 29 16 16 17 22 21 21 21 21 21 21 26 22 26 28 30 23 17 18 28 19 15 25 17 15 17 -2 10 17 8 6 4 7 12 21 11 15 9 6 3 1 5 11 14 18 13 13 12 12 12 13 11 7 6 4 4 5
55 55 56 57 57 56 57 58 58 58 58 58 57 57 56 54 56 56 55 51 55 57 56 49 28 26 18 13 13 17 44 23 13 15 19 21 21 21 21 22 20 19 19 22 21 21 25 26 21 18 16 25 24 16 16 17 14 16 11 8 8 4 4 8 17 16 9 10 10 8 4 4 7 10 11 17 13 13 12 12 12 10 5 3 3 2 3 4
55 56 56 57 57 57 56 57 57 57 57 57 55 52 53 55 54 54 55 53 54 57 40 28 29 16 15 11 9 31 17 13 12 15 17 22 21 22 22 21 21 22 14 14 18 17 21 20 15 17 19 19 15 14 13 11 13 14 -0 -2 3 3 4 8 16 15 11 10 11 6 3 5 5 10 10 15 12 12 11 11 9 6 4 2 2 2 2 1
56 56 56 57 56 57 57 56 56 56 57 57 56 48 48 51 53 54 53 47 38 37 19 22 25 31 13 14 15 13 13 15 17 15 16 21 23 23 21 20 22 23 22 16 17 17 18 13 17 7 20 17 17 13 9 8 6 9 13 -1 -1 2 3 5 13 14 12 10 7 10 8 9 10 10 9 13 12 11 10 9 7 5 3 2 1 0 -0 0
56 56 56 56 57 56 56 56 56 56 56 57 57 56 40 46 44 42 39 38 41 34 31 28 25 20 18 14 11 12 14 15 15 13 17 20 23 22 21 16 18 19 22 16 12 12 17 12 15 1 9 16 18 10 3 -6 -2 1 5 7 5 8 11 6 9 13 11 15 9 9 9 11 10 10 9 11 11 10 9 9 7 6 4 3 2 1 1 -0
56 56 56 56 57 55 56 55 56 56 57 56 57 56 53 48 38 23 27 27 29 21 19 19 20 14 12 12 12 14 16 18 18 14 15 19 24 22 26 24 20 14 18 10 12 15 19 17 16 13 5 9 12 15 4 3 6 7 7 6 6 6 4 5 10 14 14 11 12 10 9 11 11 11 10 10 10 10 10 10 10 9 8 5 3 2 0 0
55 56 56 56 57 57 55 55 56 55 55 46 40 37 37 26 23 21 27 27 20 21 21 20 21 19 15 15 15 17 18 14 11 13 17 19 21 19 17 22 23 20 22 14 18 13 21 11 12 5 7 12 12 16 14 12 10 9 10 9 8 6 6 10 13 16 18 12 11 11 12 11 11 10 11 8 4 2 2 2 3 5 6 7 6 5 3 1
55 55 55 55 55 55 55 55 55 54 51 42 38 34 25 25 21 14 19 26 19 26 21 20 22 15 15 15 16 17 11 11 14 14 17 23 23 13 15 22 22 15 19 22 19 20 19 13 12 13 13 14 14 18 15 11 11 10 7 5 7 6 4 3 5 11 17 7 7 14 12 10 9 7 7 6 3 2 1 1 1 2 3 5 6 6 5 4
54 53 54 55 55 55 55 55 56 53 48 41 39 32 30 30 25 24 23 14 22 27 21 20 22 17 17 16 17 18 14 12 11 14 18 22 19 14 20 19 19 15 21 20 17 15 14 14 15 15 15 16 16 17 16 13 10 11 6 8 6 3 7 8 11 13 13 10 5 13 11 10 9 7 6 4 4 4 2 1 1 1 2 3 4 3 3 4
53 54 54 54 55 56 55 56 52 49 39 38 35 36 35 39 43 40 27 19 18 22 22 22 19 17 17 17 20 16 14 14 14 14 18 22 19 24 23 17 18 21 20 19 12 11 12 14 14 16 13 6 2 9 9 12 12 6 9 8 5 6 5 4 8 13 12 8 7 14 10 8 8 6 7 7 5 4 7 4 4 7 1 2 2 -0 0 1
53 53 53 54 55 56 56 55 53 42 39 37 37 34 38 41 40 35 22 15 13 16 23 21 18 19 17 15 20 15 15 16 16 14 20 21 20 22 22 19 17 15 13 20 15 14 11 13 15 16 12 6 7 8 6 10 7 11 8 6 7 3 3 5 6 9 12 14 15 12 12 9 6 3 2 5 9 4 5 1 2 4 6 6 8 7 5 1
53 53 53 55 55 55 55 49 44 39 38 33 36 39 41 41 39 29 21 15 18 13 22 20 21 18 21 22 24 18 18 18 19 18 21 22 22 19 19 23 18 10 15 20 20 17 14 18 21 10 10 11 10 5 5 9 8 9 9 5 3 3 7 7 9 7 4 1 14 9 2 -3 8 4 2 5 5 3 3 5 3 3 3 6 3 2 5 6
53 53 53 54 55 54 53 36 34 41 33 28 33 41 41 40 41 33 19 16 1 10 20 15 20 16 19 15 21 22 19 17 18 19 29 22 27 19 21 12 16 10 15 20 17 9 12 17 10 11 13 13 10 3 3 10 10 6 3 8 8 8 8 7 6 6 4 0 2 7 0 -2 9 6 5 5 4 1 4 5 2 1 1 5 4 5 2 -0
53 53 53 54 53 48 26 25 30 36 24 28 41 40 39 42 41 37 25 11 6 10 10 19 19 15 25 21 22 21 10 13 15 21 19 22 23 25 15 10 19 22 21 22 18 8 19 14 16 16 12 14 9 6 6 10 8 1 5 10 10 9 8 7 7 7 6 11 10 10 6 -0 -2 5 8 7 4 2 2 4 3 1 3 2 3 6 7 4
53 53 53 54 51 45 22 37 32 28 27 41 40 40 40 40 39 32 18 -4 -7 20 12 20 18 24 22 24 19 13 12 17 14 13 22 23 23 22 16 12 12 12 17 12 1 11 9 11 15 17 12 14 10 9 11 11 6 6 10 12 11 10 9 8 9 7 4 4 3 -1 7 -1 -3 4 9 7 3 2 4 3 4 6 5 6 5 6 7 4
53 52 52 53 53 50 40 34 32 27 37 40 40 41 39 34 31 22 13 -4 -2 15 20 18 24 18 22 24 19 21 19 21 14 18 24 24 19 21 14 15 14 18 21 12 3 9 15 15 16 18 12 13 14 12 10 12 3 11 12 13 11 10 9 10 7 4 1 -4 -5 -3 1 -2 -1 9 9 9 4 3 5 4 5 7 6 7 8 6 6 5
53 51 53 51 45 39 41 37 38 43 41 40 41 36 33 30 21 12 -4 -11 14 4 18 18 20 15 23 17 19 19 17 19 22 22 22 18 17 19 21 19 16 14 14 17 10 8 12 25 25 21 16 14 13 14 11 9 8 16 13 10 8 6 4 7 5 -0 0 -15 -4 -3 1 -0 -1 4 8 8 10 5 3 4 5 8 10 8 9 8 9 7
54 52 50 51 38 35 32 27 34 40 40 42 40 34 29 19 12 3 -13 -5 18 16 22 19 17 24 20 15 11 19 20 21 18 21 18 21 17 19 19 14 20 16 16 10 9 14 16 16 21 18 24 19 16 13 15 14 13 13 10 8 5 2 3 3 1 -1 -11 -4 -2 -1 -1 2 -0 -1 4 -0 3 5 5 5 6 5 6 7 9 9 8 5
54 51 49 43 42 39 28 29 39 40 41 38 32 25 17 5 17 1 -5 17 5 13 9 12 21 21 19 21 14 15 15 19 19 20 17 16 16 16 18 13 17 3 2 7 9 13 12 8 11 13 26 14 7 3 4 10 10 9 9 7 4 2 -1 -3 -1 -4 -7 -4 -2 -1 3 1 2 1 3 1 2 3 6 6 6 7 7 8 9 7 5 4
52 51 49 46 43 38 39 41 39 42 39 36 28 23 16 11 -6 0 -0 7 -1 11 12 20 20 20 17 14 13 16 18 13 18 18 18 18 14 15 19 19 19 2 -1 4 7 9 10 11 8 11 11 16 9 3 4 2 5 8 8 5 -1 -8 -8 -5 -3 -5 -3 -2 1 1 3 2 3 4 0 1 3 6 6 8 8 9 6 7 7 5 3 3
51 47 40 42 43 41 42 41 39 40 33 35 21 25 18 8 -8 25 4 10 5 19 22 18 19 16 14 7 10 16 10 12 14 13 20 16 17 13 14 18 20 17 11 13 4 7 1 2 7 7 3 13 10 8 8 7 8 7 11 6 -3 -4 -6 -4 -7 -5 -2 1 1 3 -3 -8 -0 7 2 1 6 6 6 8 9 9 8 8 8 4 1 0
50 44 41 37 39 40 42 37 39 36 29 23 17 18 7 -5 -2 -2 -0 9 16 20 18 20 12 10 8 11 11 15 11 10 15 13 15 16 15 16 14 15 18 20 15 3 1 2 8 1 5 10 11 13 8 11 14 9 3 10 9 8 4 2 2 -3 -2 -4 -2 0 -0 -5 -2 1 2 5 6 4 4 8 10 11 13 8 6 4 2 1 0 0
48 38 38 34 38 37 38 40 37 28 24 18 15 12 0 3 -4 6 9 18 19 16 19 16 13 8 9 9 12 12 13 11 15 7 8 18 18 15 18 18 17 19 15 5 1 1 7 -1 5 11 14 11 10 13 8 6 -1 4 3 -0 1 5 4 -1 2 1 2 0 -3 -4 3 -0 5 1 3 3 5 7 8 7 4 2 2 2 1 0 -1 -1
37 37 27 30 31 36 40 37 34 26 22 17 15 1 7 9 13 10 30 19 19 21 12 7 8 5 3 4 7 12 12 14 11 7 4 14 10 18 16 14 19 19 21 13 6 5 -2 2 10 10 5 11 12 13 12 14 14 6 -2 2 6 7 5 3 -2 0 -1 -3 -3 0 -2 -1 -0 -2 -2 -1 3 4 6 4 3 1 1 -0 -1 -2 -2 -2
35 32 29 26 28 38 39 34 29 26 24 19 18 22 15 15 22 22 24 23 24 19 11 8 5 6 1 7 12 9 15 9 10 8 5 9 7 19 16 14 17 21 23 22 7 7 10 5 4 7 10 12 13 5 5 12 14 5 4 9 4 -4 -1 -0 -3 -9 -10 -5 -4 -3 -1 1 0 1 2 0 4 5 3 2 2 1 -0 -1 -2 -2 -2 -2
31 27 18 23 29 37 39 31 27 21 15 19 15 21 16 18 23 24 25 25 23 19 12 11 4 9 6 5 9 14 13 9 10 8 1 5 3 11 15 16 13 22 23 22 13 16 12 -1 5 8 8 9 5 6 2 0 7 12 10 4 6 3 -3 -7 -1 -1 -2 -4 -4 -4 -1 -4 2 4 1 9 7 3 1 2 1 0 -0 -2 -2 -2 -2 3
27 19 12 20 30 37 37 30 24 20 18 15 10 10 19 18 23 27 25 24 19 11 10 10 15 8 12 8 12 7 14 11 12 9 7 9 8 11 15 22 18 21 22 17 14 19 8 7 -1 5 8 3 3 3 -1 -0 -0 3 1 -1 2 -5 3 4 -6 -6 -6 -3 -2 -4 -5 -4 1 1 7 8 3 1 1 2 1 0 -1 -2 -2 -1 2 4
28 21 17 26 30 35 28 25 20 20 19 20 21 20 23 14 20 23 27 26 29 24 15 12 15 10 11 8 6 16 13 14 13 8 10 10 6 2 18 21 25 20 20 14 10 8 -1 6 1 5 7 2 1 3 3 3 4 0 3 2 5 -0 1 -2 -3 -7 -11 -7 -3 -3 -6 0 1 1 3 2 1 1 2 1 0 -1 -1 -2 -2 2 3 2
22 9 14 26 30 30 26 19 18 22 21 15 15 22 20 34 21 22 22 24 22 22 21 18 19 18 14 11 11 17 15 11 13 7 10 7 12 7 11 21 21 22 11 7 6 13 10 9 7 6 6 2 2 7 9 12 2 2 3 4 5 -0 -4 -4 -6 -2 -1 -0 2 2 -0 -2 3 2 3 2 1 2 2 1 -1 -1 -2 -2 0 2 0 3
18 11 19 27 29 28 17 14 22 22 18 23 25 22 23 22 19 20 19 21 16 19 15 16 16 10 11 17 18 17 16 7 10 7 9 15 15 14 15 19 19 18 18 10 9 12 25 1 -0 2 2 5 6 5 5 8 3 1 4 6 5 -0 -3 -3 -2 1 -0 1 -2 -2 -3 -3 -0 4 3 2 2 3 1 -0 -1 -2 -1 -1 2 -3 -1 5
18 11 13 27 29 30 22 10 11 13 16 18 21 19 22 24 21 18 16 18 18 18 14 16 15 15 14 20 19 15 15 -2 6 6 6 17 12 17 18 22 20 15 9 7 3 10 -1 6 -0 1 2 3 2 3 2 5 3 1 1 4 3 -0 -4 -6 -5 -9 -6 -2 1 0 -6 -3 -1 3 2 1 2 1 -0 -0 -1 -1 -1 1 -3 -4 3 0
18 20 27 24 23 23 11 18 18 15 20 13 14 11 15 15 22 24 17 19 23 20 15 15 16 18 17 20 19 20 17 2 2 7 8 13 12 18 20 21 19 19 19 21 21 17 6 9 -1 -4 -2 -2 -2 -1 1 3 5 1 1 3 1 -5 -4 -1 -8 -12 -5 1 3 1 -2 -1 0 2 0 2 1 0 0 -0 -0 -1 -0 -2 -7 1 1 -1
15 3 13 13 17 20 22 24 21 17 16 9 10 11 16 15 17 18 21 22 22 23 19 16 21 18 16 14 15 18 15 14 3 2 6 5 9 13 20 20 20 21 27 29 22 9 -2 7 6 2 -3 1 4 5 4 7 2 2 3 2 -3 -5 -8 -6 -6 -3 -2 3 2 0 1 1 -0 -1 1 1 1 0 -1 -1 -2 -2 -2 -7 -6 1 -2 -5
20 16 11 2 15 15 17 20 20 21 15 18 8 7 8 14 12 15 23 10 21 20 22 21 20 12 13 13 14 16 17 14 9 8 6 5 9 13 14 18 21 24 29 23 19 4 -3 -3 2 7 5 6 5 4 4 6 1 1 0 0 -4 -2 -6 -5 0 2 6 3 -4 1 2 -0 -1 0 1 1 1 0 -1 -3 -3 -3 -5 -9 -0 -4 1 -8
16 17 19 19 20 6 12 10 21 20 21 21 12 16 12 9 13 11 17 17 20 20 17 15 14 18 18 14 13 9 10 5 5 -1 8 8 9 14 14 16 14 19 19 13 11 3 -2 -4 -3 -1 1 5 5 4 3 2 1 1 0 -3 -6 -2 1 1 3 5 6 3 0 2 -0 -2 -1 -0 1 1 0 -1 -3 -4 -3 -5 -8 -4 -5 -7 -8 -10
22 21 21 22 11 13 18 18 23 22 23 22 21 12 8 12 12 15 15 19 14 12 9 2 5 14 22 23 14 10 10 -1 1 1 5 6 8 10 6 9 16 13 12 11 11 -2 1 -3 -3 -2 4 3 3 3 2 1 1 1 -4 -3 -3 1 2 5 5 6 6 4 1 -1 -1 -1 -1 1 1 1 0 -3 -3 -3 -5 -8 -8 -3 -8 -8 -10 -10
16 16 12 22 23 22 21 21 20 20 19 22 15 15 11 14 13 18 20 14 5 6 15 9 9 18 23 17 15 11 11 -0 0 1 5 10 9 10 8 11 9 13 7 4 8 2 2 3 5 -4 -1 5 5 2 1 0 -0 -1 -0 0 2 4 4 5 6 5 4 0 -1 -1 -1 -1 1 2 2 1 -1 -3 -4 -5 -7 -9 -6 -7 -8 -8 -9 -10
22 23 22 18 18 16 21 19 18 20 15 18 16 14 22 18 18 20 19 23 10 7 16 8 13 22 21 19 18 18 19 14 11 9 11 15 8 13 10 12 15 10 3 2 2 2 3 4 -2 -5 2 3 2 1 1 0 -0 -2 -1 -0 2 3 4 4 3 2 1 -1 -0 -1 -2 -1 2 2 1 -1 -4 -5 -5 -6 -9 -9 -9 -10 -10 -9 -8 -9
23 22 26 23 15 20 14 19 19 19 10 14 18 17 18 16 21 19 14 21 23 24 18 19 19 19 17 13 13 17 17 20 21 22 19 18 21 21 19 17 11 7 -3 -3 3 -2 -3 -3 2 -4 3 3 2 1 0 -0 -0 -9 -4 -0 2 4 4 3 2 1 -0 -0 -3 -5 -1 2 1 2 -2 -5 -6 -5 -6 -9 -10 -9 -11 -12 -12 -10 -8 -8